EW9842 Weather Reports


time (UTC)temp
F
wind
direction
speed
knots
gust
knots
rain 1hr
in
rain 24hr
in
rain mn
in
humidity
%
barometer
mb
20260505173035 67 355 3.5 8.7 0.00 0.00 0.00 56 1017.1
20260505171536 66 31 2.6 7.0 0.00 0.00 0.00 58 1017.1
20260505170038 64 358 3.5 7.8 0.00 0.00 0.00 60 1017.1
20260505164535 64 8 3.5 7.8 0.00 0.00 0.00 61 1017.0
20260505163143 63 9 3.5 7.8 0.00 0.00 0.00 63 1016.9
20260505153034 60 17 2.6 5.2 0.00 0.00 0.00 68 1017.0
20260505151536 61 302 0.9 6.1 0.00 0.00 0.00 69 1016.9
20260505124643 47 140 2.6 5.2 0.00 0.00 0.00 91 1015.9
20260505123036 47 149 2.6 3.5 0.00 0.00 0.00 90 1015.9
20260505121608 47 147 2.6 4.3 0.00 0.00 0.00 90 1015.9
20260505114534 48 142 2.6 4.3 0.00 0.00 0.00 89 1015.8
20260505113035 48 141 2.6 4.3 0.00 0.00 0.00 88 1015.8
20260505111531 48 149 2.6 3.5 0.00 0.00 0.00 87 1015.7
20260505100044 50 130 2.6 5.2 0.00 0.00 0.00 84 1015.3
20260505094648 51 146 2.6 4.3 0.00 0.00 0.00 82 1015.3
20260505093036 52 126 1.7 5.2 0.00 0.00 0.00 81 1015.3
20260505084531 52 138 2.6 5.2 0.00 0.00 0.00 80 1015.0
20260505083119 52 137 2.6 5.2 0.00 0.00 0.00 79 1015.1
20260505081530 53 142 2.6 5.2 0.00 0.00 0.00 79 1015.1
20260505080036 53 135 2.6 4.3 0.00 0.00 0.00 79 1015.1
20260505074535 54 156 2.6 5.2 0.00 0.00 0.00 80 1015.1
20260505073031 54 140 2.6 4.3 0.00 0.00 0.00 81 1015.0
20260505071642 55 149 1.7 5.2 0.00 0.00 0.00 79 1014.9
20260505070031 56 170 1.7 4.3 0.00 0.00 0.00 79 1014.9
20260505064529 57 238 0.0 3.5 0.00 0.00 0.00 79 1014.9
20260505063029 56 131 0.0 3.5 0.00 0.00 0.00 78 1014.9
20260505061608 57 289 0.0 3.5 0.00 0.00 0.00 76 1014.9
20260505060029 56 222 1.7 4.3 0.00 0.00 0.00 77 1015.0
20260505051539 56 94 1.7 4.3 0.00 0.00 0.00 69 1014.8
20260505034534 63 208 3.5 7.8 0.00 0.00 0.00 52 1013.9
20260505031530 65 238 0.9 5.2 0.00 0.00 0.00 51 1013.5
20260505030038 67 238 0.0 6.1 0.00 0.00 0.00 46 1013.4
20260505024529 69 208 0.9 6.1 0.00 0.00 0.00 44 1013.2
20260505023030 70 252 2.6 7.8 0.00 0.00 0.00 41 1013.2
20260505021533 73 277 3.5 7.8 0.00 0.00 0.00 38 1013.1
20260505014642 75 272 3.5 8.7 0.00 0.00 0.00 36 1013.0
20260505011533 75 239 4.3 12.2 0.00 0.00 0.00 33 1013.1
20260505010035 76 241 5.2 13.0 0.00 0.00 0.00 33 1013.1
20260505004607 77 245 5.2 13.0 0.00 0.00 0.00 32 1013.1
20260505003032 77 247 4.3 13.0 0.00 0.00 0.00 32 1013.0
20260505001536 78 242 6.1 13.0 0.00 0.00 0.00 32 1012.9
20260504234648 79 247 5.2 12.2 0.00 0.00 0.00 31 1012.8
20260504233034 80 240 5.2 13.0 0.00 0.00 0.00 32 1012.8
20260504231531 80 238 5.2 14.8 0.00 0.00 0.00 33 1012.9
20260504230036 80 255 5.2 12.2 0.00 0.00 0.00 32 1013.0
20260504224605 80 267 5.2 14.8 0.00 0.00 0.00 32 1013.0
20260504223032 80 268 6.1 13.0 0.00 0.00 0.00 31 1013.1
20260504221537 80 263 6.1 13.0 0.00 0.00 0.00 30 1013.1
20260504220031 80 247 5.2 11.3 0.00 0.00 0.00 31 1013.1
20260504214535 81 237 6.1 13.0 0.00 0.00 0.00 31 1013.2
20260504211608 80 256 5.2 13.0 0.00 0.00 0.00 31 1013.3
20260504210030 80 256 5.2 13.9 0.00 0.00 0.00 32 1013.3
20260504203031 80 277 5.2 12.2 0.00 0.00 0.00 34 1013.5
20260504201535 79 305 4.3 8.7 0.00 0.00 0.00 38 1013.6
20260504200033 78 333 3.5 9.6 0.00 0.00 0.00 38 1013.6
20260504194531 79 355 4.3 10.4 0.00 0.00 0.00 38 1013.6
20260504193031 78 345 3.5 7.8 0.00 0.00 0.00 39 1013.6
20260504183142 77 349 3.5 7.8 0.00 0.00 0.00 41 1013.9
20260504174610 75 328 2.6 6.1 0.00 0.00 0.00 40 1013.9